GFSNIL_925_temp_069.txt.gz
Temp
12 12 13 13 14 15 14 16 16 16 16 16 16 16 15 13 12 12 13 13 12 11
12 12 12 13 14 14 14 15 15 15 16 16 15 15 14 13 12 12 12 12 10 10
12 12 13 13 13 14 14 14 15 14 13 13 14 14 13 12 12 11 11 10 10 9
13 13 13 14 14 14 15 14 13 13 13 12 13 12 12 12 11 11 10 9 8 8
14 15 14 14 14 15 15 15 14 13 12 12 12 12 12 11 11 10 10 9 7 6
15 16 14 14 15 15 15 15 14 14 11 12 12 12 11 11 10 9 8 7 6 6
14 13 14 14 15 14 14 13 12 11 11 11 11 10 10 9 9 8 7 6 6 5
14 14 14 15 15 13 13 13 12 11 10 10 9 9 9 8 7 6 5 5 4 4
13 14 13 14 12 11 11 11 11 10 10 9 8 9 8 7 6 5 5 4 3 3
12 12 12 12 11 10 10 9 9 8 8 7 7 7 6 6 5 4 4 3 2 2
10 10 9 9 8 8 8 8 7 7 7 6 6 5 5 4 4 3 2 2 2 1
9 8 7 7 7 7 6 6 6 5 5 5 4 4 4 4 3 2 1 1 0 -0
8 8 7 7 6 6 6 5 5 4 4 4 3 3 2 3 2 1 0 -1 -2 -2
7 7 6 6 5 4 4 4 3 3 2 2 2 1 2 1 1 1 -1 -2 -3 -3

GFSNIL_925_temp_075.txt.gz
Temp
12 12 13 13 13 14 13 14 15 15 15 15 14 15 15 15 13 13 13 12 11 12
12 12 12 13 14 14 14 14 15 15 15 15 16 15 15 15 15 13 13 12 11 12
11 12 12 13 13 13 14 14 14 15 14 14 15 15 15 14 13 13 13 13 11 11
11 11 12 13 13 13 13 14 15 15 14 14 14 15 14 13 12 12 12 12 12 11
11 11 11 13 14 13 13 14 13 13 13 14 15 14 14 13 12 11 12 11 11 10
11 11 11 12 12 12 12 12 12 12 13 14 14 14 13 12 11 11 11 12 10 10
11 11 11 12 12 11 11 11 12 12 13 12 12 12 12 12 11 11 11 11 10 9
12 12 12 12 11 12 12 12 12 13 13 14 11 12 11 11 11 10 10 10 8 7
12 12 12 12 12 12 12 12 12 13 12 13 11 11 12 12 11 10 9 7 6 6
13 12 12 12 12 12 12 12 11 11 11 11 11 11 11 11 10 8 6 6 4 3
13 13 13 12 12 12 12 12 11 11 11 11 11 11 10 8 7 6 5 4 4 3
13 13 11 11 11 11 11 10 10 10 10 9 9 8 7 6 5 3 2 1 2 1
12 11 11 11 11 11 10 9 8 7 7 7 6 4 4 5 3 1 -1 -1 -1 -1
11 11 10 10 9 8 7 6 5 4 3 3 4 3 3 4 2 1 -2 -2 -3 -3

GFSNIL_925_temp_081.txt.gz
Temp
14 14 13 13 12 12 12 13 14 14 14 14 14 15 15 15 15 14 14 14 15 15
15 14 14 14 13 13 13 13 13 14 13 14 15 15 15 15 15 15 15 15 15 15
14 14 15 14 14 14 15 15 15 14 13 14 14 15 15 16 15 15 15 15 14 14
15 15 15 15 15 15 15 15 15 15 14 14 15 15 15 15 15 15 15 15 15 14
17 17 15 15 16 15 15 15 15 15 15 15 15 15 15 15 15 16 16 16 15 14
17 17 17 16 16 16 15 15 15 16 16 16 16 16 16 16 16 16 16 16 15 13
17 17 17 17 16 16 15 15 16 16 16 16 16 16 16 16 16 16 16 15 14 13
18 17 17 17 17 16 16 16 16 16 16 16 16 16 16 16 16 16 15 14 13 13
18 17 17 17 17 16 16 16 16 16 16 16 16 16 16 16 16 15 14 13 12 12
19 18 17 17 17 17 16 16 16 16 16 16 16 15 15 15 15 14 12 12 11 10
19 19 18 18 17 17 17 16 16 16 16 16 16 15 15 14 14 13 12 11 10 10
20 19 19 18 18 17 17 16 16 16 15 16 16 15 15 14 12 11 10 9 8 7
21 20 19 19 18 17 17 16 15 15 14 14 14 14 13 12 11 8 5 3 2 2
20 20 19 18 18 17 15 12 11 10 8 9 9 9 8 7 7 4 0 -1 -2 -2

GFSNIL_925_temp_084.txt.gz
Temp
13 12 12 12 12 12 12 12 12 13 14 15 15 15 15 15 14 16 16 15 15 15
13 13 12 12 12 12 13 13 13 13 13 14 15 15 15 15 15 15 15 15 14 15
14 13 13 13 12 13 13 13 12 12 13 14 15 15 15 14 15 15 15 15 15 15
14 14 14 14 13 13 13 13 13 13 13 13 13 14 13 14 14 15 15 15 14 14
14 15 14 14 14 14 13 13 14 14 14 14 14 13 13 14 14 15 15 14 14 14
15 15 15 15 15 14 14 14 14 15 15 15 14 14 14 14 15 15 15 15 15 15
17 16 16 15 15 15 15 15 15 15 15 15 15 14 14 15 15 15 15 15 15 15
18 17 17 17 16 16 16 15 15 15 15 15 15 15 15 15 15 15 15 15 15 15
19 18 17 17 17 16 16 16 16 15 15 15 15 16 16 16 16 16 16 15 15 15
19 19 18 17 17 17 16 16 16 15 15 15 15 16 16 16 16 16 16 16 15 15
20 19 19 18 17 17 16 16 16 16 16 15 16 16 16 16 16 15 15 15 14 14
20 19 19 18 17 17 17 16 16 16 16 15 16 16 16 16 16 15 14 13 12 12
21 20 20 19 18 17 17 17 16 16 16 15 16 15 16 16 14 12 10 9 7 6
21 21 20 20 19 18 17 17 16 14 12 11 11 12 13 13 11 9 5 2 0 -1

GFSNIL_925_temp_087.txt.gz
Temp
12 11 11 11 11 11 12 12 13 13 13 14 14 15 15 15 15 15 15 14 15 15
12 12 12 11 12 12 12 12 13 13 14 14 14 14 15 15 15 15 15 15 14 15
12 12 12 12 12 12 12 12 12 13 13 13 14 14 15 15 15 15 15 14 15 15
13 12 12 12 12 12 12 12 12 13 13 12 13 13 13 13 14 14 14 15 14 15
14 13 12 12 12 12 12 12 12 12 12 12 12 13 13 13 13 13 14 14 14 15
14 14 13 13 13 12 12 12 12 12 12 12 12 13 13 13 13 13 13 13 14 14
14 14 14 14 13 13 13 12 12 12 12 12 12 13 13 13 13 13 13 13 14 13
14 14 14 14 14 14 14 13 13 12 13 13 13 13 13 13 13 13 13 13 13 13
14 14 14 14 14 14 14 13 13 13 13 13 13 14 14 14 14 13 13 13 13 13
17 16 15 15 14 14 14 14 14 13 14 14 14 14 14 14 14 13 13 13 13 13
18 17 16 16 16 15 14 14 14 14 14 14 14 14 14 14 15 13 14 14 14 13
17 17 17 16 16 16 15 15 14 14 14 14 14 14 14 14 15 14 13 13 14 14
9 14 17 17 17 16 15 15 15 15 14 14 14 14 14 15 14 12 12 11 11 11
5 7 8 13 17 16 15 15 15 14 12 12 12 12 13 14 14 12 10 7 4 4

GFSNIL_925_temp_090.txt.gz
Temp
12 12 11 12 11 11 11 11 12 12 13 13 13 13 13 15 16 16 16 16 16 16
12 12 11 11 12 11 11 12 12 12 13 13 13 14 14 14 15 15 15 15 15 15
12 12 12 11 12 11 12 12 12 12 13 13 14 14 14 14 15 15 15 15 15 15
12 12 12 12 12 12 12 12 12 12 13 13 13 13 13 14 14 14 14 14 14 15
12 12 11 11 12 11 12 12 12 12 12 12 13 13 13 13 13 13 13 13 14 14
13 12 12 11 12 12 11 11 12 12 12 12 12 12 13 12 13 13 13 13 13 13
13 13 13 12 12 12 11 11 11 11 12 12 12 12 12 12 12 12 12 13 13 13
13 13 13 13 13 12 11 11 11 11 11 11 11 12 12 12 12 12 12 12 12 13
13 13 13 13 13 13 12 12 11 11 11 11 11 11 12 12 12 12 12 12 12 12
13 13 13 13 13 13 12 13 12 12 11 11 11 12 12 12 12 12 12 12 12 12
14 14 13 13 13 13 13 13 13 13 12 12 12 12 12 12 13 12 12 12 12 12
8 9 12 14 13 13 13 13 13 13 13 13 13 13 13 13 13 12 12 12 12 12
5 6 7 8 10 14 14 13 13 13 13 13 13 13 13 13 12 12 11 12 12 12
2 3 4 6 7 8 10 13 13 13 12 11 9 11 10 12 13 11 11 10 8 7

GFSNIL_925_temp_093.txt.gz
Temp
13 12 11 12 11 11 11 12 11 11 11 11 10 11 11 12 13 14 14 16 16 16
13 12 11 11 11 11 11 11 12 12 12 11 11 12 12 13 13 14 14 15 15 16
13 13 13 12 11 11 11 11 12 12 12 12 12 13 12 12 13 13 13 14 15 15
12 12 13 12 12 12 12 12 12 12 12 12 12 12 12 12 12 12 13 14 15 15
12 12 12 12 12 12 11 12 12 12 12 12 12 12 12 12 13 13 13 14 14 14
11 12 12 12 12 12 12 11 11 12 12 12 12 12 12 12 12 12 13 13 13 13
12 12 12 13 13 12 11 11 11 11 11 11 11 12 12 12 12 12 12 13 13 13
12 12 12 12 12 13 12 11 11 11 11 11 11 11 11 11 12 11 11 12 12 12
12 12 12 12 12 12 12 12 12 11 11 11 11 11 11 11 11 11 11 11 11 11
13 13 13 13 12 12 12 11 11 11 11 11 11 11 11 11 11 11 11 11 11 11
9 10 11 12 12 12 12 12 12 12 11 11 11 11 11 11 11 11 11 11 11 11
5 6 7 8 10 12 12 12 12 12 12 12 11 11 11 11 11 10 10 10 11 11
2 3 3 4 5 7 10 11 12 12 12 12 11 10 11 11 10 9 9 10 10 10
0 1 1 2 2 3 5 7 9 7 5 4 3 4 4 6 8 9 10 9 9 7

GFSNIL_925_temp_096.txt.gz
Temp
13 13 12 11 11 11 11 12 12 12 12 12 11 11 10 11 11 12 13 14 15 14
13 12 12 11 11 12 11 12 11 12 11 11 10 10 10 10 11 12 13 14 15 14
12 12 13 12 11 11 12 12 11 11 11 10 10 10 10 10 11 11 12 13 12 12
12 12 13 12 11 11 11 11 12 11 11 11 11 11 10 11 11 11 11 12 12 13
12 12 12 12 12 11 11 11 12 12 12 12 11 11 11 12 12 12 12 12 12 13
11 11 12 12 12 12 11 11 11 11 11 12 12 12 12 12 12 12 12 12 12 12
12 11 11 12 12 12 12 12 11 11 11 11 11 11 12 12 11 11 12 12 12 11
12 11 11 12 12 13 12 12 12 12 11 11 11 11 11 11 11 11 11 11 12 12
12 11 11 12 12 12 12 12 12 11 11 11 11 11 11 11 10 11 11 11 11 12
11 12 12 12 12 12 12 12 12 12 11 11 11 11 11 11 11 10 11 11 11 11
6 7 8 10 11 12 12 11 11 11 12 12 12 12 12 11 11 10 10 10 10 10
3 4 4 5 6 7 9 10 12 12 11 11 11 10 10 10 10 9 9 10 10 10
1 1 1 2 3 4 5 5 8 8 7 6 7 4 4 7 8 8 9 9 9 8
-1 -1 -1 0 1 2 2 3 2 1 1 1 0 1 3 5 6 7 6 5 3 2